Probability
0 0 0 0 0 0 0 0 0 0 0 0 0 0 0 0 1 2 3 5 8 9 8 7 6 6 6 6 5 5 5 6 8 8 4 1 1 1 1 0 0 0 0
0 0 0 0 0 0 0 0 0 0 0 0 0 0 0 1 2 2 2 4 6 8 8 8 7 6 7 7 7 7 7 7 7 7 5 2 1 0 0 0 0 0 0
0 0 0 0 0 0 0 0 0 0 0 0 0 0 1 2 3 2 2 3 4 5 6 8 8 9 10 11 10 9 8 7 7 6 5 3 1 1 1 0 0 0 0
0 0 0 0 0 0 0 0 0 0 0 0 0 0 1 2 2 2 2 2 3 3 4 6 9 11 13 12 11 11 9 7 6 6 5 4 3 3 2 1 0 0 0
0 0 0 0 0 0 0 0 0 0 0 1 1 0 0 1 1 1 1 1 2 3 3 5 7 11 12 12 13 13 10 7 7 8 7 6 6 6 5 2 1 0 0
0 0 0 0 0 0 0 0 0 0 0 1 1 0 0 0 0 0 0 0 1 1 2 3 5 8 10 11 14 15 13 10 10 9 8 8 8 7 6 5 3 2 1
0 0 0 0 0 0 0 0 0 0 0 1 1 0 0 0 0 0 0 0 0 0 1 1 2 5 6 8 11 14 13 13 11 9 8 9 10 8 7 6 6 4 3
0 0 0 0 0 0 0 0 0 0 0 0 0 0 0 0 0 0 0 0 0 0 0 0 0 1 2 4 5 8 11 13 12 10 10 11 10 9 8 7 6 5 5
0 0 0 0 0 0 0 0 0 0 0 0 0 0 0 0 0 0 0 0 0 0 0 0 0 0 0 1 2 4 9 12 12 12 13 14 13 11 11 9 8 7 6
0 0 0 0 0 0 0 0 0 0 0 0 0 0 0 0 0 0 1 1 0 0 0 0 0 0 0 0 1 4 8 11 12 13 15 16 16 15 14 12 11 9 7
1 0 0 0 0 0 0 0 0 0 0 0 0 0 1 1 1 1 2 2 1 0 0 0 0 1 1 1 1 4 7 10 11 12 13 15 17 17 15 14 13 11 10
1 1 1 0 0 0 0 0 0 0 0 0 0 1 2 2 2 3 3 2 1 0 0 0 1 2 2 2 2 4 6 8 9 9 10 12 15 15 15 14 14 12 10
1 2 2 1 0 1 1 1 1 0 0 0 0 1 3 3 3 3 3 3 1 0 0 0 2 3 3 3 4 5 7 8 8 7 6 8 11 13 13 14 14 12 10
0 1 2 1 1 2 2 1 1 1 1 1 1 2 3 3 3 3 3 3 2 1 1 1 2 2 3 3 4 5 6 7 7 4 3 4 7 9 9 10 10 9 9
0 1 1 2 2 3 3 3 2 2 2 2 3 3 3 3 3 3 3 3 3 3 2 2 2 2 3 3 2 3 4 5 4 2 1 2 4 5 5 5 5 6 6
1 2 2 3 4 5 4 4 3 3 3 3 3 3 3 3 3 3 3 3 3 3 3 3 3 3 3 2 2 2 3 2 1 0 0 1 2 2 2 1 1 2 3
3 3 3 3 4 5 6 5 4 3 3 3 3 3 3 4 4 3 3 3 3 3 3 3 3 3 3 3 2 2 2 2 1 0 0 0 1 1 1 0 0 0 1
5 4 3 3 3 4 5 6 4 3 3 3 3 3 4 5 5 4 4 3 3 3 3 3 3 4 3 3 2 2 1 1 1 0 0 0 0 0 0 0 0 0 0
8 8 7 6 5 4 5 6 5 4 3 3 3 3 4 6 6 6 5 4 3 3 4 4 4 4 4 3 2 2 3 3 2 2 1 1 0 0 0 0 0 0 0
13 13 13 11 8 7 7 8 8 7 6 5 4 4 4 5 6 7 8 8 7 6 6 6 5 5 5 4 4 4 5 5 5 5 4 3 2 2 2 1 0 0 0
14 14 15 16 14 11 10 10 12 13 11 9 7 6 5 5 6 7 9 10 11 10 10 9 8 7 8 8 7 7 7 7 7 6 6 6 5 5 5 4 2 1 0
13 12 14 17 17 15 12 10 12 16 18 16 13 10 7 6 7 7 7 7 9 10 10 10 10 9 10 11 11 10 10 9 9 8 8 7 7 7 7 6 5 2 1
13 13 14 16 17 16 11 7 7 14 20 21 19 16 13 10 8 8 7 6 7 7 7 9 10 10 11 13 14 14 13 12 11 11 10 9 9 9 8 7 5 3 1
14 14 13 14 14 13 11 6 5 11 19 23 22 20 19 15 11 9 10 10 9 7 5 5 7 8 9 10 12 13 13 12 12 12 12 12 12 10 9 8 5 3 1
14 13 12 12 12 12 11 7 5 11 18 21 20 19 19 17 12 9 9 10 11 9 4 2 3 3 3 4 5 8 10 10 11 11 11 12 12 10 10 9 7 4 2
14 13 11 11 11 12 11 6 5 11 17 20 19 17 16 15 12 7 7 9 11 10 6 2 1 0 0 0 1 4 6 9 9 9 10 11 11 10 10 9 9 6 4
Wind_Speed
1 1 1 2 2 2 2 2 2 3 3 2 2 3 4 4 4 3 3 7 8 8 9 9 9 9 9 9 9 8 8 8 8 8 7 7 7 7 7 7 7 6 6
1 1 1 2 2 2 2 2 2 3 2 2 2 3 3 3 3 4 3 4 7 8 8 9 9 9 9 9 9 9 8 8 8 7 7 7 7 7 7 6 6 6 6
2 2 2 2 2 2 3 3 3 3 2 2 2 2 2 2 3 3 3 3 3 7 8 8 8 9 9 9 9 9 8 8 7 7 7 6 6 6 6 6 6 6 6
2 2 2 2 2 2 3 3 3 3 2 2 2 1 1 1 2 3 3 3 3 3 5 8 8 9 9 9 8 8 7 7 7 7 7 7 7 6 6 6 5 5 5
3 3 2 1 2 3 2 3 3 3 2 2 1 1 1 0 1 2 2 3 3 3 3 5 7 8 9 8 8 7 6 7 7 7 7 8 7 7 6 6 6 6 6
3 3 2 2 3 3 2 2 3 3 2 2 2 1 1 1 0 1 1 2 2 4 4 4 3 5 8 8 7 7 7 7 7 7 8 8 8 7 7 7 7 7 6
3 3 2 2 2 2 2 3 3 3 2 2 2 1 1 1 0 1 1 1 2 2 3 3 3 3 3 6 6 7 8 8 8 8 8 8 8 7 7 7 7 7 7
2 3 3 3 2 2 3 3 3 2 1 1 2 1 1 2 1 1 1 2 2 1 2 3 3 3 3 2 4 6 8 8 8 8 8 8 8 8 8 8 8 8 8
2 2 3 3 3 3 3 2 2 3 2 1 1 2 2 1 1 1 0 1 1 1 2 2 3 3 4 3 3 5 7 7 7 8 7 8 8 8 8 8 8 8 8
2 2 2 2 2 2 2 2 2 2 2 1 1 0 1 2 1 1 1 0 1 2 2 2 2 3 3 3 4 6 7 7 7 7 7 7 8 8 8 8 9 9 8
1 2 2 2 2 2 2 2 2 2 2 2 2 1 1 1 1 1 2 1 1 1 2 2 2 2 3 3 3 5 6 6 6 6 6 6 7 8 8 9 9 9 8
0 1 2 2 2 2 2 2 2 3 2 2 2 2 2 2 2 2 2 2 1 1 1 2 2 2 3 3 5 6 6 6 6 7 7 7 7 7 7 8 9 9 9
1 1 2 2 2 2 2 2 2 2 3 3 2 2 2 2 2 2 2 1 1 1 1 1 2 2 3 3 3 6 6 6 6 6 7 7 7 7 7 7 8 8 8
2 2 2 2 2 2 2 2 2 2 2 2 2 2 2 2 2 2 2 2 1 1 1 2 1 2 3 3 4 5 4 6 6 6 7 7 8 8 7 7 7 6 6
2 3 3 3 2 2 2 3 2 2 2 2 2 2 2 2 2 2 2 2 2 2 2 2 1 2 2 3 3 3 4 5 6 6 6 7 7 8 7 7 6 6 6
2 2 3 3 3 3 3 3 2 2 2 2 2 2 2 2 2 2 2 2 3 3 3 2 2 2 2 2 3 4 4 5 6 6 6 6 7 7 7 7 7 7 6
3 3 3 3 3 3 3 3 3 2 2 2 2 2 3 2 2 2 2 2 2 3 3 3 2 2 2 3 2 2 3 4 4 6 6 7 7 7 7 7 7 7 7
3 3 3 3 3 3 4 4 4 3 3 3 3 3 3 2 2 2 2 3 3 3 4 4 2 2 3 3 2 2 2 2 3 5 6 7 7 7 7 7 7 7 6
3 3 3 4 4 4 4 4 4 4 4 4 4 4 4 3 3 3 3 3 3 3 3 3 3 2 2 1 1 2 2 2 2 3 5 6 7 8 8 8 8 8 7
3 3 4 4 4 4 4 4 4 4 4 4 4 4 4 4 5 4 3 4 3 3 3 3 3 2 2 1 1 2 2 2 2 2 3 3 5 7 8 8 8 8 8
3 3 3 3 4 4 4 4 4 4 4 4 4 4 5 5 6 5 4 4 4 3 3 3 3 2 2 2 2 2 3 2 3 2 2 2 3 3 5 7 8 9 10
3 2 3 3 4 4 5 6 5 4 4 4 4 4 4 5 5 6 6 6 6 5 5 4 4 4 4 4 3 2 2 2 3 1 2 3 2 4 4 4 6 8 10
3 3 3 3 4 5 5 6 6 5 4 4 4 4 4 3 4 4 5 5 5 6 7 5 5 6 5 4 3 4 3 4 4 2 2 3 3 4 4 5 7 9 10
3 3 3 4 4 5 5 5 5 4 4 4 4 4 4 4 3 3 3 3 4 4 5 5 5 6 5 4 4 4 4 3 3 2 3 3 3 4 4 5 7 9 10
3 3 3 3 3 3 3 3 4 3 3 3 3 3 4 4 4 3 3 3 4 4 3 4 5 5 4 4 3 2 2 2 3 3 3 3 3 3 4 5 6 8 10
3 2 1 1 2 2 2 2 3 2 2 3 2 3 3 4 4 3 4 4 4 4 3 2 3 3 3 3 4 4 4 3 3 3 3 3 3 2 3 3 4 4 5
Wind_Direction
100 99 99 96 98 101 109 109 107 114 114 115 131 144 151 160 168 174 175 186 190 192 196 196 195 193 192 193 195 196 194 192 194 197 200 204 205 207 206 205 204 205 206
124 127 118 113 118 125 128 121 121 121 120 122 125 138 151 161 165 169 174 183 192 196 199 202 202 201 202 201 201 203 200 199 198 198 201 204 209 214 212 204 202 207 210
143 133 121 124 132 128 121 112 106 106 111 116 121 132 140 153 165 173 177 181 193 201 202 206 206 205 206 205 204 204 202 201 201 203 204 207 209 212 209 201 206 207 206
134 125 121 121 129 126 123 120 119 114 111 113 115 119 121 140 167 177 183 183 190 200 206 207 209 210 211 210 211 207 204 205 204 205 206 210 213 210 203 200 205 207 212
133 130 125 118 118 115 120 128 119 124 121 116 109 85 79 141 181 189 190 193 191 193 201 208 210 211 214 215 216 213 213 216 211 211 213 216 217 214 211 208 205 210 214
133 132 126 114 112 115 116 114 114 105 108 111 98 63 22 352 311 211 213 202 192 197 203 210 209 212 215 219 220 216 214 218 217 216 220 220 219 215 214 209 208 210 211
133 139 137 123 122 125 126 122 113 108 100 101 87 44 8 5 318 265 243 213 209 203 200 207 210 212 214 219 223 222 223 223 224 222 225 224 223 219 214 210 210 212 215
134 148 140 137 134 127 122 123 120 116 102 111 120 105 9 355 339 271 225 214 224 212 215 215 213 213 218 219 221 224 229 232 235 232 228 225 224 219 215 213 213 214 217
122 131 135 137 140 143 149 147 140 139 148 154 124 141 143 227 324 342 281 224 209 213 226 223 223 221 217 218 224 228 231 233 236 240 235 226 224 221 217 217 217 217 219
122 132 132 138 141 141 149 163 148 152 152 166 139 132 147 153 152 333 340 306 229 225 234 233 239 230 224 220 223 225 229 231 236 242 240 228 221 218 219 220 223 223 223
114 136 142 144 144 146 150 151 146 163 166 169 168 155 147 130 159 186 279 309 311 245 231 234 238 238 232 226 228 230 230 232 234 238 238 233 224 221 222 224 226 227 227
117 146 151 153 157 162 166 172 171 176 185 182 175 168 166 167 177 184 224 255 272 276 243 233 235 237 234 230 236 234 233 234 236 236 237 237 230 227 227 230 230 229 229
206 223 187 163 164 176 173 164 167 184 187 184 190 193 195 202 180 175 184 226 268 294 296 255 232 230 235 231 240 237 239 237 234 234 235 234 232 229 228 229 232 234 233
208 204 193 187 180 174 169 160 171 192 178 194 210 199 197 215 196 192 184 176 241 303 289 270 262 230 237 234 241 238 244 239 234 235 233 230 230 230 228 228 228 231 234
203 190 190 193 188 173 166 165 181 198 186 197 210 204 208 220 204 208 199 190 192 250 281 272 269 266 246 237 240 237 240 242 237 235 230 227 227 224 222 220 222 226 230
202 187 189 192 186 182 178 176 192 199 183 203 200 200 216 221 213 210 207 205 206 211 252 263 252 271 269 265 249 242 244 246 242 238 232 229 225 219 217 217 221 225 229
195 196 200 195 196 197 190 184 205 198 198 216 214 207 225 214 211 217 212 205 208 205 238 267 251 264 256 265 273 253 248 242 243 237 232 232 227 220 216 217 220 225 230
214 209 201 198 205 204 197 196 206 203 204 217 225 219 235 223 220 224 215 219 218 215 223 257 268 260 254 259 273 266 264 253 249 244 233 229 226 224 222 221 223 225 226
220 211 201 205 211 209 203 206 203 206 211 220 223 221 231 218 231 232 224 231 233 227 222 236 260 258 257 260 277 274 266 260 257 251 234 230 231 229 227 225 224 224 225
222 221 213 215 214 212 209 209 206 209 213 222 224 225 227 221 226 229 228 233 233 232 227 234 252 260 259 254 248 260 278 267 272 271 253 247 239 234 232 228 225 224 224
228 227 221 223 220 216 216 209 210 213 215 224 232 235 235 230 225 224 227 226 221 225 228 235 248 256 255 243 249 239 261 279 271 248 263 262 250 245 238 230 228 228 226
224 220 229 229 230 232 218 205 202 216 219 224 238 246 246 244 241 236 235 229 217 219 225 230 240 247 254 246 242 236 247 270 279 237 244 269 241 249 246 239 233 229 229
218 226 236 234 238 240 225 213 207 215 226 232 237 244 250 254 244 247 248 244 237 231 222 223 235 244 249 241 228 234 235 242 255 250 229 268 253 255 254 249 237 234 232
217 227 234 236 240 247 232 219 214 219 234 242 241 238 241 260 259 247 247 250 252 248 236 229 236 246 249 247 230 233 238 247 261 243 212 253 258 261 263 253 241 233 231
219 224 225 229 235 254 234 207 192 208 228 248 253 246 241 248 262 236 229 248 264 273 260 244 244 252 252 245 228 213 219 235 265 256 209 237 258 271 267 258 246 235 235
225 222 230 229 230 256 269 215 192 205 226 243 253 256 250 249 256 228 222 236 253 265 277 282 277 276 261 247 225 218 218 225 249 257 210 218 247 260 270 254 256 249 243